Regional Weather Roundup
Issued by NWS

Home | Current Version | Previous Version | Graphics & Text | Print | Product List | Glossary Off
Versions: 1 2 3 4 5 6 7 8 9 10 11 12 13 14 15 16 17 18 19 20 21 22 23 24 25 26 27 28 29 30 31 32 33 34 35 36 37 38 39 40 41 42 43 44 45 46 47 48 49 50

323
ASUS43 KFSD 182302
RWRSD

WEATHER ROUNDUP FOR SOUTH DAKOTA
NATIONAL WEATHER SERVICE SIOUX FALLS SD
600 PM CDT WED OCT 18 2017

NOTE: "FAIR" INDICATES FEW OR NO CLOUDS BELOW 12,000 FEET WITH NO
SIGNIFICANT WEATHER AND/OR OBSTRUCTIONS TO VISIBILITY.


SDZ001>005-009-010-012>017-190000-
NORTHWEST AND NORTH CENTRAL SOUTH DAKOTA

CITY           SKY/WX    TMP DP  RH WIND       PRES   REMARKS
BUFFALO          N/A     60  25  26 S7        29.91F
FAITH            N/A     62  23  22 SW12      30.00S
MOBRIDGE       CLEAR     63  25  23 W7        29.96F
$$

SDZ012>016-024>037-041>051-057-063-072>074-190000-
SOUTHWEST AND SOUTH CENTRAL SOUTH DAKOTA

CITY           SKY/WX    TMP DP  RH WIND       PRES   REMARKS
RAPID CTY ARPT CLEAR     64  28  25 S16       30.01F
PIERRE         CLEAR     62  21  20 CALM      30.02S
CUSTER         SUNNY     58  23  26 SW7       30.10F
ELLSWORTH AFB  CLEAR     65  28  24 S14G24    29.99F
PHILIP         CLEAR     64  27  24 S7        30.03F
PINE RIDGE     CLEAR     67  28  23 S9        30.06S
SPEARFISH      FAIR      63  30  29 CALM      30.00F
WINNER         FAIR      64  35  34 E5        30.06S
$$

SDZ004>011-016>023-039-040-190000-
NORTHEAST SOUTH DAKOTA

CITY           SKY/WX    TMP DP  RH WIND       PRES   REMARKS
ABERDEEN       CLEAR     57  28  33 W7        30.00S
WATERTOWN      CLEAR     55  28  35 W7        30.00S
BROOKINGS      CLEAR     59  33  37 NW6       30.02R
SISSETON         N/A     59  25  27 W10       29.96R
$$

SDZ017-020-022-023-036>040-048>070-190000-
SOUTHEAST SOUTH DAKOTA

CITY           SKY/WX    TMP DP  RH WIND       PRES   REMARKS
SIOUX FALLS    MOCLDY    65  35  33 N8        30.01R
HURON          CLEAR     62  31  31 N3        30.02S
CHAMBERLAIN    CLEAR     65  31  27 NW3       30.05R
MITCHELL       CLEAR     65  27  23 N6        30.04R
YANKTON        CLEAR     67  36  31 NW10      30.02R
$$

ABBREVIATIONS USED IN REMARKS
   TC - TEMPERATURE IN CELSIUS
  WCI - WIND CHILL INDEX
   HX - HEAT INDEX
  VSB - VISIBILITY





USA.gov is the U.S. government's official web portal to all federal, state and local government web resources and services.